IRIDIUM 47 DEB, 40254

Orbit data source: Space-Track

IRIDIUM 47 DEB, 40254 is space debris in LEO originally from a launch on Sat, 20 Dec 1997 UTC launched from the Air Force Western Test Range (AFWTR). Debris objects in space refer to the collection of defunct objects orbiting the Earth. Examples of debris include non-operational satellites, rocket bodies, and fragments generated from explosions, collisions, or faulty payload assembly.

Loading next visibility...
IRIDIUM 47 DEB details
Identifier
40254, 1997-082P
Orbit
LEO
Last TLE update2 days ago
Origin
Flag of USIridium (US)
ManufacturerUnknown
MissionSpacecraft
Bus & MotorUnknown
MassUnknown
Launch date (UTC)
1997-12-20 (27 years ago)
Launch vehicleUnknown
Launch site
Air Force Western Test Range (AFWTR)
Object type
Payload
Rocket body
Debris
Shape & HBRUnknown
Radar Cross SectionSmall (<0.1 m²)

Expand to show TLE details & history

TLE from 2 days ago
0 IRIDIUM 47 DEB
1 40254U 97082P   24360.04632038  .00073324  00000-0  22943-1 0  9992
2 40254  86.0075 116.1645 0125986 163.1966 197.3464 14.35779304524086
Epoch: 2024-12-25T01:06Z
Definitive object data (Epoch: 2024-12-25T01:06:42.08Z)
Latitude-0.00005°
Longitude5.44347°
Altitude861.634 km
Speed7.377 km/s
True Right ascension07h 44m 39s
True Declination0° 00' 00"
Sunlit
Object was in full shadow at TLE epoch
Visualization TLE readout
Latitude-2.02429°
Longitude4.49388°
Altitude858.997 km
Speed7.379 km/s
Apparent Right ascension07h 07m 15s
Apparent Declination-19° 54' 50"
Sunlit
Object is in full shadow
Visualization observer readout
Local Sidereal Time18:17:26
Azimuth328.266° NNW
Elevation-67.326°
Doppler factor1
Orbital elements
Apogee altitude859.497 km
Perigee altitude679.398 km
Semi-major axis7,147.585 km
Eccentricity0.0125986
Inclination86.0075°
RAAN116.1645°
Arg. of periapsis163.1966°
True anomaly196.92235°
Mean anomaly197.3464°
Eccentric anomaly197.13374°
Mean motion3.59173 °/min
BSTAR0.022943
Orbital period100.23 mins
Loading maneuver chart data...

IRIDIUM 47 DEB Visibility forecast

Observer location: undefined°, undefined

Span
Click to sort rows by Start time (UTC) header in descending order
Start Az.
Max El. time (UTC)
Max El. Az.
Max El.
End time (UTC)
End Az.
8 mins2024-12-26 19:29:52.335Z11.781° NNE2024-12-26 19:33:52.335Z69.351° E33.226°2024-12-26 19:37:52.335Z149.599° SSE
4 mins2024-12-26 21:12:52.335Z303.5° NW2024-12-26 21:14:52.335Z273.339° WNW16.103°2024-12-26 21:16:52.335Z245.751° WSW
8 mins2024-12-27 08:25:52.335Z182.12° SSW2024-12-27 08:29:52.335Z357.97° N44.324°2024-12-27 08:33:52.335Z2.605° NNE
|